Current Version              Previous Version:    01  02  03  04  05  06  07  08  09  10  11  12  13  14  15  16  17  18  19  20  21  22  23  24  25  26  27  28  29  30  
   31  32  33  34  35  36  37  38  39  40  41  42  43  44  45  46  47  48  49  50  51  52  53  54  55  56  57  58  59  60  

[Printable]
297
ASUS44 KEWX 261910
RWRTX
SOUTH TEXAS REGIONAL WEATHER ROUNDUP
NATIONAL WEATHER SERVICE AUSTIN/SAN ANTONIO TX
100 PM CST MON JAN 26 2015

NOTE: "FAIR" INDICATED FEW OR NO CLOUDS BELOW 12,000 FEET WITH NO
SIGNIFICANT WEATHER AND/OR OBSTRUCTIONS TO VISIBILITY.

* - THESE STATIONS ARE NOT NWS OR FAA STATIONS...AND ARE NOT SUBJECT
    TO NWS AND FAA QUALITY CONTROL.

TXZ171-172-183>190-262000-
TEXAS HILL COUNTRY AND EDWARDS PLATEAU

CITY           SKY/WX    TMP DP  RH WIND       PRES   REMARKS
JUNCTION       PTSUNNY   65  34  31 W9        30.25F
*LLANO         PTSUNNY   66  39  37 W7        30.27F
BURNET         PTSUNNY   65  35  33 NW7       30.24F
*HORSESHOE BAY PTSUNNY   67  37  33 N5        30.24F
*KERRVILLE     PTSUNNY   68  32  26 W8        30.25F
*FREDERICKSBRG PTSUNNY   67  31  25 W8        30.24F
*ROCKSPRINGS   PTSUNNY   64  30  27 SW7       30.30F
*BOERNE STAGE  CLOUDY    70  32  24 W6        30.25F
*CASTROVILLE   CLOUDY    72  33  23 W8        30.26F
HONDO          PTSUNNY   71  32  23 W9        30.27F
*UVALDE        PTSUNNY   67  33  27 SW5       30.27F
DEL RIO        PTSUNNY   67  34  29 MISG      30.25F
LAUGHLIN AFB   PTSUNNY   67  37  33 S5        30.26F
CARRIZO SPRGS  PTSUNNY   66  37  34 SW3       30.26F
$$

TXZ173-191>194-202-209-217>225-228-262000-
CENTRAL AND SOUTH CENTRAL TEXAS

CITY           SKY/WX    TMP DP  RH WIND       PRES   REMARKS
GEORGETOWN     SUNNY     70  37  30 W14       30.21F
AUSTIN/BERGSTM PTSUNNY   69  38  32 W5        30.22F
AUSTIN/MABRY   PTSUNNY   68  37  32 NW6       30.23F
*AUSTIN/EXEC   PTSUNNY   72  36  26 NW12      30.21F
*LAGO VISTA    PTSUNNY   69  35  28 W7        30.23F
SAN MARCOS     SUNNY     66  39  37 S9        30.24F
NEW BRAUNFELS  CLOUDY    68  44  42 SW12      30.22F
RANDOLPH AFB   CLOUDY    69  34  27 SW7       30.23F
PT SAN ANTONIO CLOUDY    70  33  26 SW8       30.23F
SAN ANTONIO    CLOUDY    71  36  27 VRB6      30.24F
STINSON FIELD  CLOUDY    70  34  26 W8        30.23F
*PLEASANTON    CLOUDY    71  35  26 W8        30.26F
*LA GRANGE     SUNNY     68  41  36 NW3       30.19F
*GIDDINGS      NOT AVBL
*GONZALES      SUNNY     67  42  40 W5        30.22F
$$

TXZ163>164-176>182-195>201-210>213-226-227-235-262000-
SOUTHEAST TEXAS

CITY           SKY/WX    TMP DP  RH WIND       PRES   REMARKS
COLLEGE STN    SUNNY     63  34  33 W8        30.22F
*BRYAN         SUNNY     62  34  34 W9        30.23F
*CALDWELL      MOSUNNY   64  32  29 SW7       30.24F
*CROCKETT      SUNNY     64  37  36 W8        30.21F
*BRENHAM       SUNNY     66  34  30 W5        30.22F
HUNTSVILLE     SUNNY     63  33  32 W5        30.19F
CONROE         SUNNY     61  35  37 W8        30.21F
HOUSTON BUSH   PTSUNNY   63  34  33 W8        30.21F
HOUSTON HOBBY  PTSUNNY   63  32  31 VRB6      30.21F
*HOUSTON SW AP MOSUNNY   63  37  39 SW6       30.22F
PEARLAND       MOSUNNY   63  31  30 VRB7      30.22F
HOUSTON HOOKS  MOSUNNY   62  34  35 W7        30.21F
ELLINGTON FLD  PTSUNNY   66  32  28 W6        30.22F
SUGAR LAND     MOSUNNY   64  35  34 NW6       30.21F
*HOUSTON EXEC    N/A    N/A N/A N/A MISG        N/A
*CLEVELAND MUN NOT AVBL
*WHARTON       PTSUNNY   64  36  35 CALM      30.23F
*COLUMBUS      FAIR      67  39  35 SW3       30.21F
$$

TXZ214>216-236>238-262000-
THE UPPER TEXAS COAST

CITY           SKY/WX    TMP DP  RH WIND       PRES   REMARKS
*ORANGE        SUNNY     62  34  34 NW7       30.18F
PORT ARTHUR    SUNNY     65  33  30 NW9G18    30.17F
GALVESTON      MOSUNNY   61  38  42 W6        30.21F
ANGLETON       MOSUNNY   62  35  36 NW7       30.21F
*BAY CITY      PTSUNNY   64  36  35 W6        30.22F
PALACIOS       PTSUNNY   65  37  35 N7        30.23F
$$

TXZ229>234-239>247-262000-
TEXAS COASTAL BEND AND RIO GRANDE PLAINS

CITY           SKY/WX    TMP DP  RH WIND       PRES   REMARKS
VICTORIA       PTSUNNY   69  38  32 VRB3      30.23F
*BEEVILLE      PTSUNNY   69  41  36 CALM      30.25F
ROCKPORT       MOSUNNY   68  40  35 W5        30.24F
*PORT ARANSAS  PTSUNNY   65  40  39 S5        30.25F
*PORT LAVACA   PTSUNNY   67  41  39 CALM      30.24F
*INGLESIDE     MOSUNNY   70  41  34 CALM      30.24F
CORPUS CHRISTI PTSUNNY   72  38  29 E5        30.25F
CORPUS NAS     PTSUNNY   67  38  34 N5        30.25F
*ROBSTOWN      MOSUNNY   71  36  27 N3        30.25F
ALICE          MOSUNNY   74  31  20 VRB5      30.24F
KINGSVILLE NAS PTSUNNY   74  38  27 E5        30.25F
COTULLA        PTSUNNY   72  34  24 W6        30.25F
*FAITH RANCH   PTSUNNY   68  36  30 SE3       30.28F
LAREDO         SUNNY     72  39  30 VRB5      30.28F
$$

TXZ248>255-262000-
DEEP SOUTH TEXAS

CITY           SKY/WX    TMP DP  RH WIND       PRES   REMARKS
BROWNSVILLE    MOSUNNY   76  34  21 VRB3      30.27F
PORT ISABEL    MOSUNNY   73  36  25 VRB5      30.26F
*SOUTH PADRE   MOSUNNY  N/A N/A N/A CALM      30.26F
HARLINGEN      MOSUNNY   77  33  20 NE7       30.26F
*HEBBRONVILLE  PTSUNNY   73  26  17 SW3       30.26F
MCALLEN        PTSUNNY   74  35  24 CALM      30.28F
*WESLACO       MOSUNNY   73  35  24 CALM      30.27F
FALFURRIAS     MOSUNNY   74  25  15 E3        30.24F
EDINBURG       MOSUNNY   76  28  16 NE5       30.27F
*ZAPATA        MOSUNNY   71  36  27 CALM      30.26F
$$

TXZ213>215-236>238-242>244-246-247-251-254-255-262000-
CMAN STATIONS

STATION/POSITION TIME  TEMP    WIND        PRES    WAVE
                       AIR SEA DIR/SP/G            HT/PER
                 (UTC) (F)     (DEG/KT/KT) (MB)    (FT/S)
SEA RIM ST PARK  1900   60     310/  8/ 11 1022.5
NORTH JETTY/GLS  1900   57 54  270/  7/  7   N/A
EAGLE POINT      1900   61 54  350/  4/  6 1022.9
MORGANS POINT    1900   59     330/  4/  7 1022.8
MISSION/ARANSAS  1800   54     VRB  5      1026.0
PORT O`CONNOR    1900           CALM  /  1   N/A
PORT ARANSAS     1900   60 56  150/  5/  5 1025.0
MALAQUITE BEACH  1900   61 58   50/  7/  7 1024.0
BAFFIN BAY       1900   63     210/  3/  4 1024.5
PORT ISABEL      1900   65 56  350/  4/  5 1024.9
$$

GMZ080-GMZ150>470-262000-
OFFSHORE BUOY REPORTS

STATION/POSITION TIME  TEMP    WIND        PRES    WAVE
                       AIR SEA DIR/SP/G            HT/PER
                 (UTC) (F)     (DEG/KT/KT) (MB)    (FT/S)
20 E GALVESTON   1900   54 56  280/ 12/ 14 1022.6    1/ 5
90 E PT ARANSAS  1900   61 69  350/ 10/ 12 1024.0    2/ 4
35 NE PT MANSFLD 1900   64 68  320/  6/  8 1024.5    1/ 4
200 E PT ISABEL  1900   67 72   10/ 14/ 17 1022.6    6/ 7
$$